Change the Weather History Date:

Tuesday, December 3, 2013

  Actual Average Record
Temperature  
Mean Temperature 59 °F -  
Max Temperature 71 °F 67 °F 84 °F (1954)
Min Temperature 47 °F 40 °F 27 °F (1957)
Degree Days  
Heating Degree Days 6    
Growing Degree Days 9 (Base 50)    
Moisture  
Dew Point 33 °F    
Average Humidity 44    
Maximum Humidity 63    
Minimum Humidity 17    
Precipitation  
Precipitation 0.00 in - - ()
Sea Level Pressure  
Sea Level Pressure 29.79 in    
Wind  
Wind Speed 6 mph (SSE)    
Max Wind Speed 15 mph    
Max Gust Speed -    
Visibility 10 miles    
Events      
Averages and records for this station are not official NWS values.
T = Trace of Precipitation, MM = Missing Value Source: NWS Daily Summary

Daily Weather History Graph

Daily Weather History Graph

Search for Another Location

Airport or City:

Trip Planner

Search our weather history database for the weather conditions in past years. The results will help you decide how hot, cold, wet, or windy it might be!

Date:

Astronomy

Dec. 03, 2013 Rise Set
Actual Time 7:08 AM MST 5:18 PM MST
Civil Twilight 6:41 AM MST 5:45 PM MST
Nautical Twilight 6:11 AM MST 6:15 PM MST
Astronomical Twilight 5:41 AM MST 6:45 PM MST
Moon 7:42 AM MST (12/3) 6:24 PM MST (12/3)
Length of Visible Light 11h 03m
Length of Day
10h 10m
New Moon, 1% of the Moon is Illuminated
Dec 3
New Moon
Dec 9
First Quarter
Dec 17
Full
Dec 25
Last Quarter
Jan 1
New

Hourly Weather History & Observations

Time (MST) Temp. Dew Point Humidity Pressure Visibility Wind Dir Wind Speed Gust Speed Precip Events Conditions
12:58 AM 48.0 °F 35.4 °F 62% 29.88 in 10.0 mi East 3.5 mph - N/A   Clear
1:58 AM 47.7 °F 35.8 °F 63% 29.85 in 10.0 mi SSE 6.9 mph - N/A   Clear
2:58 AM 48.6 °F 33.8 °F 57% 29.83 in 10.0 mi SE 8.1 mph - N/A   Mostly Cloudy
3:58 AM 48.9 °F 31.8 °F 52% 29.81 in 10.0 mi East 5.8 mph - N/A   Partly Cloudy
4:58 AM 48.0 °F 31.5 °F 53% 29.82 in 10.0 mi SE 2.3 mph - N/A   Clear
5:58 AM 47.8 °F 32.0 °F 54% 29.83 in 10.0 mi ESE 9.2 mph - N/A   Overcast
6:58 AM 48.2 °F 31.1 °F 52% 29.84 in 10.0 mi ESE 5.8 mph - N/A   Clear
7:58 AM 49.5 °F 30.2 °F 48% 29.83 in 10.0 mi ESE 6.9 mph - N/A   Clear
8:58 AM 54.1 °F 30.4 °F 40% 29.84 in 10.0 mi SE 9.2 mph - N/A   Clear
9:58 AM 58.8 °F 29.3 °F 33% 29.86 in 10.0 mi SE 8.1 mph - N/A   Clear
10:58 AM 64.0 °F 28.8 °F 26% 29.83 in 10.0 mi SE 8.1 mph - N/A   Clear
11:58 AM 67.3 °F 23.7 °F 19% 29.78 in 10.0 mi South 5.8 mph - N/A   Clear
12:58 PM 69.1 °F 24.4 °F 19% 29.74 in 10.0 mi NNE 4.6 mph - N/A   Clear
1:58 PM 71.2 °F 24.6 °F 17% 29.71 in 10.0 mi North 2.3 mph - N/A   Clear
6:58 PM 63.9 °F 41.4 °F 44% 29.70 in 10.0 mi SW 5.8 mph - N/A   Clear
7:58 PM 60.6 °F 42.1 °F 50% 29.70 in 10.0 mi SW 10.4 mph - N/A   Clear
8:58 PM 62.1 °F 41.9 °F 48% 29.71 in 10.0 mi SSW 12.7 mph - N/A   Clear
9:58 PM 61.5 °F 40.5 °F 46% 29.72 in 10.0 mi SSW 15.0 mph - N/A   Clear
10:58 PM 61.2 °F 38.8 °F 44% 29.72 in 10.0 mi South 9.2 mph - N/A   Clear
11:58 PM 60.6 °F 38.7 °F 44% 29.72 in 10.0 mi South 5.8 mph - N/A   Overcast